Notices

What's New in latest Release from April 7th, 2021:

- Updated Glossary, including Speed of Maximum Gust, and Total Hourly Precipitation

- Updated national and regional climate services offices contacts and prices information

- Addition of station inventory lists for 1981-2010, 1971-2000, and 1961-1990 Normals.

If you haven't already, please take our survey and provide feedback about our website: https://eccc.sondage-survey.ca/f/LanguageSelection.aspx?s=442ca660-fcf1-47c0-95a9-59707d6fd709

Hourly Data Report for August 07, 2017

TORONTO CITY
ONTARIO

43°40'00.000" N
79°24'00.000" W
112.50 m
6158355
71508
XTO

Download Data

Hourly Data (August 2017)
Hourly Data Report for August 7, 2017
TIME
LST
Temp Definition
°C
Dew Point Definition
°C
Rel Hum Definition
%
Precip. Amount Definition
mm

Wind Dir Definition
10's deg

Wind Spd Definition
km/h
Visibility Definition
km
Stn Press Definition
kPa
Hmdx Definition


Wind Chill Definition


Weather Definition


00:00 17.9 12.2 69 0.0 LegendMM LegendMM   100.33     LegendNANA
01:00 17.7 11.7 68 0.0 LegendMM LegendMM   100.31     LegendNANA
02:00 17.1 12.0 72 0.0 LegendMM LegendMM   100.29     LegendNANA
03:00 16.7 12.4 76 0.0 LegendMM LegendMM   100.26     LegendNANA
04:00 17.2 12.5 74 0.0 LegendMM LegendMM   100.24     LegendNANA
05:00 17.7 12.5 72 0.0 LegendMM LegendMM   100.22     LegendNANA
06:00 18.0 12.3 69 0.0 LegendMM LegendMM   100.26     LegendNANA
07:00 18.7 11.9 65 0.0 LegendMM LegendMM   100.25     LegendNANA
08:00 19.3 12.4 64 0.0 LegendMM LegendMM   100.26     LegendNANA
09:00 19.2 13.1 68 0.0 LegendMM LegendMM   100.27     LegendNANA
10:00 20.3 12.8 62 0.0 LegendMM LegendMM   100.26     LegendNANA
11:00 19.9 12.2 61 0.0 LegendMM LegendMM   100.25     LegendNANA
12:00 19.9 14.0 69 0.0 LegendMM LegendMM   100.22     LegendNANA
13:00 20.9 13.3 62 0.0 LegendMM LegendMM   100.17     LegendNANA
14:00 20.1 13.4 65 0.0 LegendMM LegendMM   100.15     LegendNANA
15:00 20.1 13.2 64 0.0 LegendMM LegendMM   100.14     LegendNANA
16:00 20.6 14.0 66 0.0 LegendMM LegendMM   100.14     LegendNANA
17:00 21.0 14.0 65 0.0 LegendMM LegendMM   100.10     LegendNANA
18:00 20.3 14.5 70 0.0 LegendMM LegendMM   100.09     LegendNANA
19:00 19.7 14.3 71 0.0 LegendMM LegendMM   100.10     LegendNANA
20:00 18.7 14.8 78 0.0 LegendMM LegendMM   100.16     LegendNANA
21:00 17.7 14.3 80 0.0 LegendMM LegendMM   100.18     LegendNANA
22:00 17.2 13.6 80 0.0 LegendMM LegendMM   100.15     LegendNANA
23:00 16.0 13.2 84 0.0 LegendMM LegendMM   100.18     LegendNANA

Notes on Data Quality.

Legend

  • E = Estimated
  • M = Missing
  • NA = Not Available*
  • [empty] = Indicates an unobserved value
Date modified: